GORIZONT 24 [-]

Last updated on Oct. 25, 2020, 5:56 a.m. UTC

1 21759U 91074A   20298.69538082 -.00000255  00000-0  00000+0 0  9999
2 21759  15.2708 359.1785 0016207 214.7883 224.3715  0.98445375104741
UTC
Height (km)
Latitude
Longitude
Inclination
Orbital Period
UTC large
Height (km)
Speed (km/s)
/
Latitude / Longitude
Inclination (degrees)
Orbital Period (minutes)
Azimuth
Elevation
Range (km)
Doppler Factor
iOS Compass Heading
iOS Angle

Next 30 passes for location: Hong Kong

Rise time Rise Azimuth (degrees) Set time Set Azimuth (degrees) Duration Max altitude (degrees)

No matching passes for this satellites